Location: Rosenheim
(47.8408°N, 12.2113°E)
Time: 08:37:43
(UTC+01:00)

ISS - Pass Details

Date: 08 January 2018
Orbit: 402 x 406 km, 51.6° (Epoch: 16 January)

Event Time Altitude Azimuth Distance (km) Brightness Sun altitude
Exits shadow 06:40:28 22° 303° (WNW) 938 -2.6 -12.7°
Maximum altitude 06:42:20 57° 16° (NNE) 485 -3.5 -12.4°
Drops below altitude 10° 06:45:35 10° 96° (E) 1,465 0.4 -11.9°
Sets 06:47:41 0° 101° (E) 2,325 2.0 -11.5°
